G4YTK Weather Reports


time (UTC)temp
C
wind
direction
speed
KPH
gust
KPH
rain 1hr
cm
rain 24hr
cm
rain mn
cm
humidity
%
barometer
mb
20260507160007 15 150 4.8 11.3 0.00 0.00 0.00 14 1014.8
20260507153004 15 140 4.8 14.5 0.00 0.00 0.00 19 1015.0
20260507151504 15 123 6.4 11.3 0.00 0.00 0.00 45 1015.0
20260507150018 15 128 9.7 22.5 0.00 0.00 0.00 49 1015.2
20260507144504 16 176 6.4 24.1 0.00 0.00 0.00 48 1015.2
20260507143004 15 198 3.2 6.4 0.00 0.00 0.00 55 1015.5
20260507141504 15 132 4.8 17.7 0.00 0.00 0.00 43 1015.6
20260507140008 15 169 3.2 9.7 0.00 0.00 0.00 70 1015.7
20260507134504 15 146 6.4 12.9 0.00 0.00 0.00 49 1015.8
20260507133004 15 205 6.4 17.7 0.00 0.00 0.00 100 1015.7
20260507130007 15 206 4.8 12.9 0.00 0.00 0.00 100 1015.9
20260507124504 15 209 6.4 17.7 0.00 0.00 0.00 100 1016.0
20260507123005 14 150 4.8 12.9 0.00 0.00 0.00 100 1016.2
20260507121504 14 150 6.4 16.1 0.00 0.00 0.00 100 1016.2
20260507113007 13 159 8.0 19.3 0.00 0.00 0.00 100 1016.5
20260507111506 13 211 8.0 14.5 0.00 0.00 0.00 100 1016.5
20260507104504 12 360 4.8 14.5 0.00 0.00 0.00 100 1016.6
20260507103005 12 360 4.8 12.9 0.00 0.00 0.00 100 1016.7
20260507101504 11 360 6.4 16.1 0.00 0.00 0.00 100 1016.8
20260507100006 11 360 6.4 12.9 0.00 0.00 0.00 100 1016.8
20260507094503 10 360 4.8 9.7 0.00 0.00 0.00 100 1016.7
20260507093004 10 360 4.8 9.7 0.00 0.00 0.00 100 1016.8
20260507091503 9 360 6.4 9.7 0.00 0.00 0.00 100 1016.8
20260507090006 9 360 4.8 12.9 0.00 0.00 0.00 100 1016.7
20260507074503 8 360 4.8 12.9 0.00 0.00 0.00 100 1016.8
20260507073004 7 360 6.4 14.5 0.00 0.00 0.00 100 1016.7
20260507071503 7 360 6.4 12.9 0.00 0.00 0.00 100 1016.6
20260507070010 6 360 8.0 16.1 0.00 0.00 0.00 100 1016.6
20260507064503 6 360 6.4 12.9 0.00 0.00 0.00 100 1016.4
20260507063004 6 360 6.4 12.9 0.00 0.00 0.00 100 1016.5
20260507061503 6 360 4.8 9.7 0.00 0.00 0.00 100 1016.5
20260507060008 5 360 6.4 12.9 0.00 0.00 0.00 100 1016.5
20260507054504 5 360 6.4 14.5 0.00 0.00 0.00 100 1016.4
20260507051503 5 360 4.8 12.9 0.00 0.00 0.00 100 1016.3
20260507044503 5 360 6.4 9.7 0.00 0.00 0.00 100 1016.4
20260507043003 5 360 8.0 12.9 0.00 0.00 0.00 100 1016.2
20260507041503 5 360 6.4 14.5 0.00 0.00 0.00 100 1016.2
20260507040006 5 360 3.2 4.8 0.00 0.00 0.00 100 1016.2
20260507034503 5 360 6.4 9.7 0.00 0.00 0.00 100 1016.2
20260507033004 5 360 6.4 9.7 0.00 0.00 0.00 100 1016.2
20260507031503 5 360 4.8 8.0 0.00 0.00 0.00 100 1016.3
20260507030006 5 360 4.8 9.7 0.00 0.00 0.00 100 1016.4
20260507023003 5 360 6.4 14.5 0.00 0.00 0.00 100 1016.3
20260507021503 5 360 4.8 9.7 0.00 0.00 0.00 100 1016.1
20260507020007 5 360 6.4 9.7 0.00 0.00 0.00 100 1016.3
20260507014503 5 360 6.4 12.9 0.00 0.00 0.00 100 1016.3
20260507013003 5 360 6.4 12.9 0.00 0.00 0.00 100 1016.4
20260507011503 5 360 6.4 9.7 0.00 0.00 0.00 100 1016.5
20260507010007 5 360 6.4 9.7 0.00 0.00 0.00 100 1016.6
20260507004503 5 360 6.4 12.9 0.00 0.00 0.00 100 1016.6
20260507003004 5 360 8.0 14.5 0.00 0.00 0.00 100 1016.6
20260507001503 5 360 6.4 14.5 0.00 0.00 0.00 100 1016.6
20260507000008 5 360 8.0 14.5 0.00 0.00 0.00 100 1016.8
20260506233005 5 360 6.4 12.9 0.00 0.00 0.00 100 1016.8
20260506231505 5 360 6.4 14.5 0.00 0.00 0.00 100 1016.7
20260506230010 5 360 4.8 9.7 0.00 0.00 0.00 100 1016.8
20260506224505 5 360 6.4 12.9 0.00 0.00 0.00 100 1016.7
20260506223005 6 360 8.0 12.9 0.00 0.00 0.00 100 1016.7
20260506221505 6 360 6.4 12.9 0.00 0.00 0.00 100 1016.6
20260506220007 6 360 8.0 12.9 0.00 0.00 0.00 100 1016.5
20260506214502 6 360 8.0 17.7 0.00 0.00 0.00 100 1016.5
20260506213005 6 360 6.4 14.5 0.00 0.00 0.00 100 1016.4
20260506211504 6 360 6.4 12.9 0.00 0.00 0.00 100 1016.4
20260506204504 7 360 6.4 12.9 0.00 0.00 0.00 100 1016.2
20260506203004 7 360 6.4 14.5 0.00 0.00 0.00 100 1016.1
20260506201504 7 360 6.4 12.9 0.00 0.00 0.00 100 1015.9
20260506200007 7 360 8.0 12.9 0.00 0.00 0.00 100 1015.7
20260506194504 8 360 8.0 16.1 0.00 0.00 0.00 100 1015.5
20260506193004 8 360 9.7 17.7 0.00 0.00 0.00 100 1015.4
20260506184504 9 360 11.3 19.3 0.00 0.00 0.00 100 1015.4
20260506183005 10 360 11.3 19.3 0.00 0.00 0.00 100 1015.4
20260506181504 10 360 11.3 19.3 0.00 0.00 0.00 100 1015.4
20260506180007 10 360 14.5 22.5 0.00 0.00 0.00 100 1015.3
20260506174504 10 360 11.3 20.9 0.00 0.00 0.00 100 1015.3
20260506173004 11 360 12.9 20.9 0.00 0.00 0.00 100 1015.1
20260506170007 11 75 8.0 19.3 0.00 0.00 0.00 100 1014.9
20260506164504 11 360 11.3 22.5 0.00 0.00 0.00 100 1014.9
20260506163004 11 360 12.9 20.9 0.00 0.00 0.00 100 1015.0
20260506161504 11 360 11.3 20.9 0.00 0.00 0.00 100 1015.0